Location: Cartignies
(50.0929°N, 3.8447°E)
Time: 14:12:13
(UTC+00:00)

BREEZE-M DEB (TANK) - Pass Details

Date: 12 January 2026
Orbit: 273 x 16126 km, 49.5° (Epoch: 16 February)

Event Time Altitude Azimuth Distance (km) Brightness Sun altitude
Rises 18:07:11 0° 227° (SW) 2,215 6.4 -18.6°
Reaches altitude 10° 18:08:31 10° 220° (SW) 1,607 5.4 -18.8°
Maximum altitude 18:11:33 48° 143° (SE) 1,000 3.4 -19.3°
Enters shadow 18:14:03 31° 90° (E) 1,829 4.4 -19.7°
